Elefsis, Greece

7:34 AM EEST on May 27, 2018 (GMT +0300)
Elefsis Air Base

Weather History for LGEL - September, 2013

Change the Weather History Date:

Saturday, September 21, 2013

  Actual Average Record
Temperature  
Mean Temperature 75 °F -  
Max Temperature 82 °F 75 °F 93 °F (2000)
Min Temperature 68 °F 59 °F 59 °F (1998)
Cooling Degree Days 10    
Growing Degree Days 25 (Base 50)    
Moisture  
Dew Point 56 °F    
Average Humidity 54    
Maximum Humidity 73    
Minimum Humidity 37    
Precipitation  
Precipitation 0.00 in - - ()
Sea Level Pressure  
Sea Level Pressure 29.99 in    
Wind  
Wind Speed 3 mph ()    
Max Wind Speed 10 mph    
Max Gust Speed -    
Visibility 6.2 miles    
Events      
Averages and records for this station are not official NWS values.
T = Trace of Precipitation, MM = Missing Value Source: Averaged Metar Reports

Daily Weather History Graph

Daily Weather History Graph

Search for Another Location

Airport or City:

Astronomy

Sep. 21, 2013 Rise Set
Actual Time 7:12 AM EEST 7:24 PM EEST
Civil Twilight 6:46 AM EEST 7:50 PM EEST
Nautical Twilight 6:15 AM EEST 8:21 PM EEST
Astronomical Twilight 5:44 AM EEST 8:52 PM EEST
Moon 8:26 PM EEST (9/21) 9:08 AM EEST (9/21)
Length of Visible Light 13h 04m
Length of Day
12h 11m
Waning Gibbous, 96% of the Moon is Illuminated
Sep 21
Waning Gibbous
Sep 27
Last Quarter
Oct 5
New
Oct 12
First Quarter
Oct 19
Full

Hourly Weather History & Observations

Time (EEST) Temp. Heat Index Dew Point Humidity Pressure Visibility Wind Dir Wind Speed Gust Speed Precip Events Conditions
12:50 AM 69.8 °F - 60.8 °F 73% 29.95 in 6.2 mi Calm Calm - N/A   Partly Cloudy
1:50 AM 69.8 °F - 60.8 °F 73% 29.95 in 6.2 mi Calm Calm - N/A   Partly Cloudy
2:50 AM 69.8 °F - 60.8 °F 73% 29.95 in 6.2 mi Calm Calm - N/A   Partly Cloudy
3:50 AM 71.6 °F - 59.0 °F 64% 29.95 in 6.2 mi Calm Calm - N/A   Partly Cloudy
4:50 AM 69.8 °F - 59.0 °F 68% 29.95 in 6.2 mi Calm Calm - N/A   Partly Cloudy
5:50 AM 68.0 °F - 59.0 °F 73% 29.95 in 6.2 mi Calm Calm - N/A   Partly Cloudy
6:20 AM 68.0 °F - 59.0 °F 73% 29.98 in 6.2 mi Calm Calm - N/A   Partly Cloudy
6:50 AM 68.0 °F - 59.0 °F 73% 29.98 in 6.2 mi Calm Calm - N/A   Partly Cloudy
7:20 AM 69.8 °F - 59.0 °F 68% 29.98 in 6.2 mi Calm Calm - N/A   Partly Cloudy
7:50 AM 69.8 °F - 59.0 °F 68% 29.98 in 6.2 mi Calm Calm - N/A   Partly Cloudy
8:20 AM 73.4 °F - 59.0 °F 61% 29.98 in 6.2 mi Calm Calm - N/A   Partly Cloudy
8:50 AM 73.4 °F - 59.0 °F 61% 30.01 in 6.2 mi NNW 6.9 mph - N/A   Partly Cloudy
9:20 AM 75.2 °F - 57.2 °F 53% 30.01 in 6.2 mi NNW 6.9 mph - N/A   Partly Cloudy
9:50 AM 77.0 °F - 55.4 °F 47% 30.01 in 6.2 mi NNW 8.1 mph - N/A   Partly Cloudy
10:20 AM 77.0 °F - 55.4 °F 47% 30.01 in 6.2 mi NNW 8.1 mph - N/A   Partly Cloudy
10:50 AM 78.8 °F - 55.4 °F 44% 30.01 in 6.2 mi North 4.6 mph - N/A   Scattered Clouds
11:20 AM 78.8 °F - 55.4 °F 44% 30.01 in 6.2 mi North 4.6 mph - N/A   Scattered Clouds
11:50 AM 78.8 °F - 53.6 °F 42% 30.01 in 6.2 mi NNW 8.1 mph - N/A   Scattered Clouds
12:20 PM 80.6 °F 80.3 °F 53.6 °F 39% 30.01 in 6.2 mi North 10.4 mph - N/A   Scattered Clouds
12:50 PM 78.8 °F - 53.6 °F 42% 30.01 in 6.2 mi NNW 8.1 mph - N/A   Scattered Clouds
1:20 PM 78.8 °F - 51.8 °F 39% 30.01 in 6.2 mi NNW 4.6 mph - N/A   Mostly Cloudy
1:50 PM 80.6 °F - 51.8 °F 37% 30.01 in 6.2 mi Calm Calm - N/A   Mostly Cloudy
2:20 PM 82.4 °F 81.4 °F 53.6 °F 37% 29.98 in 6.2 mi Calm Calm - N/A   Mostly Cloudy
2:50 PM 80.6 °F 80.8 °F 57.2 °F 45% 29.98 in 6.2 mi South 9.2 mph - N/A   Mostly Cloudy
3:20 PM 80.6 °F 80.8 °F 57.2 °F 45% 29.98 in 6.2 mi South 9.2 mph - N/A   Mostly Cloudy
3:50 PM 78.8 °F - 57.2 °F 47% 29.98 in 6.2 mi South 9.2 mph - N/A   Mostly Cloudy
4:20 PM 82.4 °F 81.7 °F 55.4 °F 39% 29.98 in 6.2 mi South 9.2 mph - N/A   Mostly Cloudy
4:50 PM 82.4 °F 81.7 °F 55.4 °F 39% 29.98 in 6.2 mi South 5.8 mph - N/A   Scattered Clouds
5:20 PM 80.6 °F 80.5 °F 55.4 °F 42% 29.98 in 6.2 mi South 5.8 mph - N/A   Scattered Clouds
5:50 PM 77.0 °F - 55.4 °F 47% 29.98 in 6.2 mi East 8.1 mph - N/A   Scattered Clouds
6:20 PM 77.0 °F - 55.4 °F 47% 29.98 in 6.2 mi East 8.1 mph - N/A   Scattered Clouds
6:50 PM 75.2 °F - 55.4 °F 50% 30.01 in 6.2 mi East 8.1 mph - N/A   Scattered Clouds
7:20 PM 75.2 °F - 55.4 °F 50% 30.01 in 6.2 mi East 8.1 mph - N/A   Scattered Clouds
7:50 PM 75.2 °F - 55.4 °F 50% 30.01 in 6.2 mi East 9.2 mph - N/A   Mostly Cloudy
8:20 PM 73.4 °F - 55.4 °F 53% 30.01 in 6.2 mi East 9.2 mph - N/A   Mostly Cloudy
8:50 PM 73.4 °F - 57.2 °F 57% 30.01 in 6.2 mi East 8.1 mph - N/A   Mostly Cloudy
9:20 PM 71.6 °F - 55.4 °F 57% 30.01 in 6.2 mi East 6.9 mph - N/A   Mostly Cloudy
9:50 PM 71.6 °F - 55.4 °F 57% 30.04 in 6.2 mi East 4.6 mph - N/A   Mostly Cloudy
10:20 PM 71.6 °F - 55.4 °F 57% 30.04 in 6.2 mi East 4.6 mph - N/A   Scattered Clouds
10:50 PM 69.8 °F - 55.4 °F 60% 30.04 in 6.2 mi Calm Calm - N/A   Mostly Cloudy
11:20 PM 71.6 °F - 55.4 °F 57% 30.04 in 6.2 mi Calm Calm - N/A   Partly Cloudy
11:50 PM 71.6 °F - 55.4 °F 57% 30.04 in 6.2 mi Calm Calm - N/A   Mostly Cloudy